Meerawa, Australia

4:54 AM AEST on October 20, 2017 (GMT +1000)
Meerawa

Weather History for 94287 - May, 2013

Change the Weather History Date:

Saturday, May 25, 2013

  Actual Average Record
Temperature  
Mean Temperature 70 °F -  
Max Temperature 77 °F 79 °F - ()
Min Temperature 62 °F 65 °F - ()
Cooling Degree Days 4    
Growing Degree Days 20 (Base 50)    
Moisture  
Dew Point 51 °F    
Average Humidity 51    
Maximum Humidity 77    
Minimum Humidity 31    
Precipitation  
Precipitation 0.00 in 0.08 in - ()
Sea Level Pressure  
Sea Level Pressure 30.02 in    
Wind  
Wind Speed 12 mph ()    
Max Wind Speed 23 mph    
Max Gust Speed 33 mph    
Visibility 8.2 miles    
Events      
T = Trace of Precipitation, MM = Missing Value Source: Averaged Metar Reports

Daily Weather History Graph

Daily Weather History Graph

Search for Another Location

Airport or City:

Trip Planner

Search our weather history database for the weather conditions in past years. The results will help you decide how hot, cold, wet, or windy it might be!

Date:

Astronomy

May. 25, 2013 Rise Set
Actual Time 6:36 AM AEST 5:50 PM AEST
Civil Twilight 6:13 AM AEST 6:14 PM AEST
Nautical Twilight 5:47 AM AEST 6:40 PM AEST
Astronomical Twilight 5:20 AM AEST 7:06 PM AEST
Moon 6:00 PM AEST (5/25) 6:18 AM AEST (5/25)
Length of Visible Light 12h 00m
Length of Day
11h 14m
Full, 100% of the Moon is Illuminated
May 25
Full
May 25
Full
Jun 1
Last Quarter
Jun 9
New
Jun 17
First Quarter

Hourly Weather History & Observations

Time (AEST) Temp. Dew Point Humidity Pressure Visibility Wind Dir Wind Speed Gust Speed Precip Events Conditions
12:00 AM 68 °F 55 °F 55% 30.00 in - South 8.1 mph - -  
12:00 AM 68.0 °F 55.4 °F 64% 30.01 in 6.2 mi South 8.1 mph - N/A   Scattered Clouds
1:00 AM 67 °F 53 °F 50% 30.00 in - South 12.7 mph - -  
1:00 AM 68.0 °F 53.6 °F 60% 29.98 in 6.2 mi South 12.7 mph - N/A   Scattered Clouds
1:30 AM 68.0 °F 51.8 °F 56% 29.98 in 6.2 mi South 12.7 mph - N/A   Scattered Clouds
2:00 AM 66.2 °F 51.8 °F 60% 29.98 in 6.2 mi South 12.7 mph - N/A   Scattered Clouds
2:30 AM 66.2 °F 50.0 °F 56% 29.98 in - South 12.7 mph - N/A   Overcast
3:00 AM 66 °F 49 °F 44% 29.99 in - South 12.7 mph - -  
3:00 AM 66.2 °F 50.0 °F 56% 29.98 in - South 12.7 mph - N/A   Scattered Clouds
3:30 AM 66.2 °F 48.2 °F 52% 29.98 in - South 12.7 mph - N/A   Unknown
4:00 AM 65 °F 47 °F 40% 29.99 in - South 12.7 mph - -  
4:00 AM 66.2 °F 46.4 °F 49% 29.98 in - South 12.7 mph - N/A   Clear
4:30 AM 64.4 °F 46.4 °F 52% 29.98 in - South 11.5 mph - N/A   Clear
5:00 AM 66.2 °F 44.6 °F 46% 29.98 in - South 12.7 mph - N/A   Unknown
5:30 AM 66.2 °F 44.6 °F 46% 30.01 in - South 12.7 mph - N/A   Clear
6:00 AM 66 °F 44 °F 34% 30.02 in 19 mi South 12.7 mph - -   Partly Cloudy
6:00 AM 66.2 °F 44.6 °F 46% 30.01 in - South 12.7 mph - N/A   Clear
6:30 AM 66.2 °F 44.6 °F 46% 30.01 in - South 11.5 mph - N/A   Clear
7:00 AM 66 °F 45 °F 36% 30.04 in - South 12.7 mph - -  
7:00 AM 66.2 °F 44.6 °F 46% 30.04 in - South 12.7 mph - N/A   Clear
7:30 AM 66.2 °F 46.4 °F 49% 30.04 in - South 13.8 mph - N/A   Clear
8:00 AM 66.2 °F 48.2 °F 52% 30.04 in 6.2 mi South 13.8 mph - N/A   Partly Cloudy
8:30 AM 68.0 °F 48.2 °F 49% 30.04 in 6.2 mi South 15.0 mph - N/A   Partly Cloudy
9:00 AM 70 °F 49 °F 35% 30.06 in 19 mi South 15.0 mph - -   Partly Cloudy
9:00 AM 69.8 °F 48.2 °F 46% 30.04 in 6.2 mi South 15.0 mph - N/A   Partly Cloudy
9:30 AM 71.6 °F 48.2 °F 43% 30.06 in 6.2 mi South 17.3 mph - N/A   Partly Cloudy
9:43 AM 71.6 °F 50.0 °F 46% 30.04 in 6.2 mi South 17.3 mph 28.8 mph N/A   Partly Cloudy
10:00 AM 72 °F 51 °F 36% 30.06 in - South 23.0 mph - -  
10:02 AM 71.6 °F 50.0 °F 46% 30.04 in - South 21.9 mph 33.4 mph N/A   Clear
10:30 AM 73.4 °F 51.8 °F 47% 30.04 in - SSE 21.9 mph - N/A   Clear
11:00 AM 75.2 °F 50.0 °F 41% 30.04 in 6.2 mi SSE 20.7 mph - N/A   Partly Cloudy
11:30 AM 75.2 °F 50.0 °F 41% 30.04 in 6.2 mi SSE 18.4 mph - N/A   Partly Cloudy
12:00 PM 75 °F 51 °F 32% 30.03 in 19 mi SSE 17.3 mph - -   Partly Cloudy
12:00 PM 75.2 °F 51.8 °F 44% 30.01 in 6.2 mi SSE 17.3 mph - N/A   Partly Cloudy
12:30 PM 77.0 °F 51.8 °F 41% 30.01 in 6.2 mi SSE 13.8 mph - N/A   Partly Cloudy
1:00 PM 76 °F 51 °F 31% 30.01 in - SSE 15.0 mph - -  
1:00 PM 75.2 °F 51.8 °F 44% 29.98 in 6.2 mi SSE 15.0 mph - N/A   Partly Cloudy
1:30 PM 75.2 °F 53.6 °F 47% 29.98 in 6.2 mi SE 17.3 mph - N/A   Partly Cloudy
2:00 PM 75.2 °F 53.6 °F 47% 29.95 in 6.2 mi SE 19.6 mph - N/A   Partly Cloudy
2:30 PM 75.2 °F 53.6 °F 47% 29.95 in 6.2 mi SE 19.6 mph - N/A   Partly Cloudy
3:00 PM 75 °F 54 °F 38% 29.96 in 19 mi ESE 19.6 mph - -   Partly Cloudy
3:00 PM 75.2 °F 53.6 °F 47% 29.95 in 6.2 mi ESE 19.6 mph - N/A   Partly Cloudy
3:30 PM 75.2 °F 53.6 °F 47% 29.95 in - SE 19.6 mph - N/A   Clear
4:00 PM 74 °F 54 °F 39% 29.98 in - SE 20.7 mph - -  
4:00 PM 73.4 °F 53.6 °F 50% 29.95 in - SE 20.7 mph - N/A   Clear
4:30 PM 73.4 °F 53.6 °F 50% 29.98 in - SE 19.6 mph - N/A   Clear
5:00 PM 71.6 °F 53.6 °F 53% 29.98 in - SE 19.6 mph - N/A   Clear
5:30 PM 69.8 °F 53.6 °F 56% 30.01 in 6.2 mi SE 13.8 mph - N/A   Partly Cloudy
6:00 PM 67 °F 54 °F 53% 30.02 in - SSE 9.2 mph - -  
6:00 PM 68.0 °F 53.6 °F 60% 30.01 in 6.2 mi SSE 9.2 mph - N/A   Partly Cloudy
6:30 PM 66.2 °F 53.6 °F 64% 30.04 in 6.2 mi South 8.1 mph - N/A   Partly Cloudy
7:00 PM 66 °F 53 °F 54% 30.05 in - South 8.1 mph - -  
7:00 PM 66.2 °F 53.6 °F 64% 30.04 in - South 8.1 mph - N/A   Clear
7:30 PM 64.4 °F 53.6 °F 68% 30.04 in - South 8.1 mph - N/A   Clear
8:00 PM 64.4 °F 53.6 °F 68% 30.04 in - South 10.4 mph - N/A   Clear
8:30 PM 66.2 °F 51.8 °F 60% 30.06 in - South 11.5 mph - N/A   Clear
9:00 PM 65 °F 53 °F 55% 30.09 in - South 8.1 mph - -  
9:00 PM 64.4 °F 51.8 °F 64% 30.06 in - South 8.1 mph - N/A   Clear
9:30 PM 62.6 °F 53.6 °F 72% 30.06 in - South 6.9 mph - N/A   Clear
10:00 PM 63 °F 54 °F 64% 30.09 in - SE 5.8 mph - -  
10:00 PM 62.6 °F 53.6 °F 72% 30.06 in - SE 5.8 mph - N/A   Clear
10:30 PM 62.6 °F 53.6 °F 72% 30.06 in - ESE 9.2 mph - N/A   Clear
11:00 PM 62.6 °F 55.4 °F 77% 30.06 in - SE 9.2 mph - N/A   Clear
11:30 PM 62.6 °F 55.4 °F 77% 30.06 in - SE 10.4 mph - N/A   Clear